Back to catalog

YAOGAN-31 B

AliveMilitaryLEO
NORAD 43276·PAYLOAD·🇨🇳 China

Launched Apr 10, 2018 from Jiuquan Satellite Launch Center

Loading…

Next Passes (next 24 hours)

TLE

FreshSource: Space-Track

Epoch: Sep 14, 2026, 14:59 UTC

1 43276U 18034B   26257.62470104  .00000031  00000-0  16121-3 0  9992
2 43276  63.3928 221.1431 0283093   7.6551 352.8661 13.45462451414250

Track YAOGAN-31 B in real time with AllMySat

Download on the App Store